This is the latest recevied weather packets stored in our database for station/object K4HOG. If no packets are shown the sender has not sent any weather packets the latest 10 day(s).
| Time | Temp. | Humidity | Pressure | Rain* | Wind** | Luminosity | Snow |
|---|---|---|---|---|---|---|---|
| 1777576562 | 31.67° C | 53% | 1010.4 hPa | 0 mm | - | 807 W/m² | - |
| 1777576259 | 31.67° C | 53% | 1010.3 hPa | 0 mm | - | 810 W/m² | - |
| 1777575955 | 31.11° C | 53% | 1010.6 hPa | 0 mm | - | 756 W/m² | - |
| 1777575651 | 31.67° C | 51% | 1010.6 hPa | 0 mm | - | 833 W/m² | - |
| 1777575347 | 31.67° C | 50% | 1010.2 hPa | 0 mm | - | 793 W/m² | - |
| 1777575044 | 31.11° C | 50% | 1010.5 hPa | 0 mm | - | 765 W/m² | - |
| 1777574739 | 31.67° C | 50% | 1010.6 hPa | 0 mm | - | 797 W/m² | - |
| 1777574438 | 31.67° C | 50% | 1010.6 hPa | 0 mm | - | 784 W/m² | - |
| 1777574133 | 31.67° C | 48% | 1010.8 hPa | 0 mm | - | 849 W/m² | - |
| 1777573828 | 31.67° C | 49% | 1010.7 hPa | 0 mm | - | 850 W/m² | - |
| 1777573523 | 31.67° C | 48% | 1010.7 hPa | 0 mm | - | 864 W/m² | - |
| 1777573220 | 31.67° C | 48% | 1010.9 hPa | 0 mm | - | 903 W/m² | - |
| 1777572916 | 31.67° C | 48% | 1010.6 hPa | 0 mm | - | 902 W/m² | - |
| 1777572612 | 32.22° C | 49% | 1011 hPa | 0 mm | - | 182 W/m² | - |
| 1777572312 | 32.78° C | 47% | 1011.1 hPa | 0 mm | - | 369 W/m² | - |
| 1777572009 | 32.22° C | 48% | 1010.8 hPa | 0 mm | - | 884 W/m² | - |
| 1777571708 | 32.22° C | 48% | 1011 hPa | 0 mm | - | 895 W/m² | - |
| 1777571407 | 31.67° C | 48% | 1010.9 hPa | 0 mm | - | 920 W/m² | - |
| 1777571103 | 31.67° C | 49% | 1011.2 hPa | 0 mm | - | 922 W/m² | - |
| 1777570798 | 31.11° C | 49% | 1011.2 hPa | 0 mm | - | 962 W/m² | - |
| 1777570494 | 31.67° C | 46% | 1011.2 hPa | 0 mm | - | 913 W/m² | - |
| 1777570190 | 31.67° C | 47% | 1011 hPa | 0 mm | - | 923 W/m² | - |
| 1777569887 | 31.67° C | 48% | 1011.1 hPa | 0 mm | - | 915 W/m² | - |
| 1777569583 | 31.11° C | 48% | 1011.3 hPa | 0 mm | - | 938 W/m² | - |
| 1777569279 | 30.56° C | 52% | 1011.4 hPa | 0 mm | - | 920 W/m² | - |
* Rain latest hour (hover to see other rain measurements)
** Current wind speed in m/s (hover to see current wind gust speed)